DW4974 Weather Reports


Display with metric or nautical units.
time (UTC)temp
F
wind
direction
speed
MPH
gust
MPH
rain 1hr
in
rain 24hr
in
rain mn
in
humidity
%
barometer
mb
20260906201530 102 360 2.0 8.0 0.00 0.00 0.00 32 1012.3
20260906200524 102 360 2.0 12.0 0.00 0.00 0.00 33 1012.4
20260906195530 102 360 1.0 14.0 0.00 0.00 0.00 33 1012.5
20260906194533 102 360 0.0 7.0 0.00 0.00 0.00 32 1012.7
20260906193530 102 360 4.0 10.0 0.00 0.00 0.00 32 1012.8
20260906192538 101 360 2.0 12.0 0.00 0.00 0.00 33 1012.9
20260906191523 101 360 3.0 11.0 0.00 0.00 0.00 33 1013.1
20260906190533 101 360 2.0 10.0 0.00 0.00 0.00 33 1013.3
20260906185536 101 360 2.0 8.0 0.00 0.00 0.00 35 1013.5
20260906184524 101 360 0.0 7.0 0.00 0.00 0.00 34 1013.8
20260906183543 100 360 1.0 8.0 0.00 0.00 0.00 34 1013.9
20260906182534 100 360 2.0 6.0 0.00 0.00 0.00 34 1014.1
20260906181537 100 360 2.0 9.0 0.00 0.00 0.00 35 1014.3
20260906180527 101 360 1.0 5.0 0.00 0.00 0.00 35 1014.5
20260906175535 101 360 0.0 1.0 0.00 0.00 0.00 35 1014.6
20260906174558 100 360 0.0 8.0 0.00 0.00 0.00 36 1014.8
20260906173551 99 360 2.0 4.0 0.00 0.00 0.00 35 1015.0
20260906172529 99 360 0.0 6.0 0.00 0.00 0.00 37 1015.1
20260906171542 98 360 1.0 5.0 0.00 0.00 0.00 37 1015.2
20260906170633 98 360 1.0 4.0 0.00 0.00 0.00 36 1015.4
20260906165551 98 360 0.0 3.0 0.00 0.00 0.00 37 1015.6
20260906164538 97 360 1.0 4.0 0.00 0.00 0.00 40 1015.6
20260906163517 97 360 1.0 2.0 0.00 0.00 0.00 41 1015.6
20260906162531 96 360 0.0 3.0 0.00 0.00 0.00 41 1015.5
20260906161539 96 360 0.0 1.0 0.00 0.00 0.00 42 1015.5
20260906160637 96 360 0.0 1.0 0.00 0.00 0.00 41 1015.5
20260906155526 95 360 0.0 4.0 0.00 0.00 0.00 43 1015.4
20260906154517 94 360 0.0 2.0 0.00 0.00 0.00 44 1015.4
20260906153521 94 360 0.0 3.0 0.00 0.00 0.00 44 1015.5
20260906152529 93 360 0.0 0.0 0.00 0.00 0.00 45 1015.5
20260906151536 92 360 0.0 1.0 0.00 0.00 0.00 47 1015.6
20260906150549 91 360 0.0 0.0 0.00 0.00 0.00 47 1015.6
20260906145535 90 360 0.0 0.0 0.00 0.00 0.00 49 1015.6
20260906144528 89 360 0.0 1.0 0.00 0.00 0.00 57 1015.5
20260906143551 87 360 0.0 0.0 0.00 0.00 0.00 59 1015.6
20260906142518 85 360 0.0 0.0 0.00 0.00 0.00 63 1015.5
20260906141531 83 360 0.0 0.0 0.00 0.00 0.00 67 1015.5
20260906140524 81 360 0.0 1.0 0.00 0.00 0.00 73 1015.3
20260906135534 78 360 0.0 0.0 0.00 0.00 0.00 77 1015.2
20260906134520 77 360 0.0 0.0 0.00 0.00 0.00 79 1015.1
20260906133533 76 360 0.0 1.0 0.00 0.00 0.00 80 1015.1
20260906132552 75 360 0.0 0.0 0.00 0.00 0.00 81 1015.0
20260906131533 74 360 0.0 0.0 0.00 0.00 0.00 81 1014.8
20260906130552 73 360 0.0 0.0 0.00 0.00 0.00 81 1014.8
20260906125546 73 360 0.0 0.0 0.00 0.00 0.00 81 1014.6
20260906124516 72 360 0.0 1.0 0.00 0.00 0.00 81 1014.5
20260906123527 72 360 0.0 0.0 0.00 0.00 0.00 81 1014.3
20260906122532 72 360 0.0 0.0 0.00 0.00 0.00 80 1014.3
20260906121521 72 360 0.0 0.0 0.00 0.00 0.00 80 1014.1
20260906120535 72 360 0.0 0.0 0.00 0.00 0.00 80 1013.9
20260906115518 72 360 0.0 1.0 0.00 0.00 0.00 80 1013.7
20260906114520 72 360 0.0 0.0 0.00 0.00 0.00 80 1013.7
20260906113554 72 360 0.0 0.0 0.00 0.00 0.00 79 1013.7
20260906112519 72 360 0.0 0.0 0.00 0.00 0.00 78 1013.6
20260906111530 72 360 0.0 0.0 0.00 0.00 0.00 78 1013.5
20260906110537 73 360 0.0 0.0 0.00 0.00 0.00 78 1013.6
20260906105523 73 360 0.0 0.0 0.00 0.00 0.00 76 1013.6
20260906104531 73 360 0.0 0.0 0.00 0.00 0.00 76 1013.5
20260906103515 74 360 0.0 0.0 0.00 0.00 0.00 75 1013.5
20260906102537 74 360 0.0 0.0 0.00 0.00 0.00 75 1013.4
20260906101525 74 360 0.0 1.0 0.00 0.00 0.00 75 1013.4
20260906100539 74 360 0.0 1.0 0.00 0.00 0.00 74 1013.4
20260906095518 74 360 0.0 0.0 0.00 0.00 0.00 74 1013.4
20260906094557 75 360 0.0 1.0 0.00 0.00 0.00 74 1013.3
20260906093534 75 360 0.0 0.0 0.00 0.00 0.00 74 1013.3
20260906092528 75 360 0.0 1.0 0.00 0.00 0.00 73 1013.3
20260906091533 75 360 0.0 0.0 0.00 0.00 0.00 73 1013.3
20260906090555 75 360 0.0 2.0 0.00 0.00 0.00 73 1013.3
20260906085527 75 360 0.0 0.0 0.00 0.00 0.00 72 1013.2
20260906084532 76 360 0.0 0.0 0.00 0.00 0.00 72 1013.1
20260906083518 76 360 0.0 0.0 0.00 0.00 0.00 71 1013.0
20260906082555 76 360 0.0 1.0 0.00 0.00 0.00 71 1012.9
20260906081527 76 360 0.0 0.0 0.00 0.00 0.00 71 1013.1
20260906080531 76 360 0.0 1.0 0.00 0.00 0.00 70 1013.1
20260906075535 77 360 0.0 0.0 0.00 0.00 0.00 71 1013.0
20260906074526 77 360 0.0 0.0 0.00 0.00 0.00 70 1013.0
20260906073530 77 360 0.0 0.0 0.00 0.00 0.00 70 1013.0
20260906072521 77 360 0.0 0.0 0.00 0.00 0.00 70 1012.8
20260906071557 77 360 0.0 0.0 0.00 0.00 0.00 70 1012.9
20260906070536 77 360 0.0 0.0 0.00 0.00 0.00 70 1012.9
20260906065525 77 360 0.0 0.0 0.00 0.00 0.00 69 1012.9
20260906064519 77 360 0.0 0.0 0.00 0.00 0.00 69 1012.9
20260906063528 78 360 0.0 0.0 0.00 0.00 0.00 68 1012.9
20260906062537 78 360 0.0 0.0 0.00 0.00 0.00 67 1012.9
20260906061528 79 360 0.0 0.0 0.00 0.00 0.00 66 1012.9
20260906060521 79 360 0.0 0.0 0.00 0.00 0.00 66 1012.9
20260906055530 79 360 0.0 0.0 0.00 0.00 0.00 66 1012.8
20260906054528 79 360 0.0 0.0 0.00 0.00 0.00 66 1012.9
20260906053541 79 360 0.0 0.0 0.00 0.00 0.00 66 1012.9
20260906052522 79 360 0.0 0.0 0.00 0.00 0.00 66 1013.0
20260906051519 79 360 0.0 0.0 0.00 0.00 0.00 66 1013.1
20260906050607 79 360 0.0 0.0 0.00 0.00 0.00 66 1013.1
20260906045529 79 360 0.0 0.0 0.00 0.00 0.00 65 1013.1
20260906044541 79 360 0.0 0.0 0.00 0.00 0.00 64 1013.2
20260906043523 80 360 0.0 0.0 0.00 0.00 0.00 63 1013.1
20260906042516 80 360 0.0 0.0 0.00 0.00 0.00 62 1013.0
20260906041557 81 360 0.0 0.0 0.00 0.00 0.00 61 1012.9
20260906040552 82 360 0.0 0.0 0.00 0.00 0.00 60 1013.0
20260906035534 83 360 0.0 0.0 0.00 0.00 0.00 58 1013.0
20260906034521 83 360 0.0 0.0 0.00 0.00 0.00 57 1013.0
20260906033532 83 360 0.0 0.0 0.00 0.00 0.00 57 1012.8
20260906032520 83 360 0.0 0.0 0.00 0.00 0.00 58 1012.9
20260906031532 83 360 0.0 0.0 0.00 0.00 0.00 58 1012.8
20260906030535 83 360 0.0 0.0 0.00 0.00 0.00 57 1012.7
20260906025514 84 360 0.0 0.0 0.00 0.00 0.00 56 1012.8
20260906024524 84 360 0.0 0.0 0.00 0.00 0.00 55 1012.7
20260906023530 83 360 0.0 0.0 0.00 0.00 0.00 56 1012.4
20260906022551 84 360 0.0 0.0 0.00 0.00 0.00 56 1012.3
20260906021548 84 360 0.0 0.0 0.00 0.00 0.00 55 1012.1
20260906020533 84 360 0.0 0.0 0.00 0.00 0.00 54 1012.0
20260906015530 84 360 0.0 0.0 0.00 0.00 0.00 54 1011.8
20260906014536 85 360 0.0 0.0 0.00 0.00 0.00 54 1011.5
20260906013522 85 360 0.0 0.0 0.00 0.00 0.00 53 1011.4
20260906012533 86 360 0.0 0.0 0.00 0.00 0.00 51 1011.3
20260906011518 88 360 0.0 0.0 0.00 0.00 0.00 49 1011.3
20260906010546 89 360 0.0 0.0 0.00 0.00 0.00 47 1011.2
20260906005534 90 360 0.0 0.0 0.00 0.00 0.00 45 1011.1
20260906004517 93 360 0.0 0.0 0.00 0.00 0.00 43 1011.2
20260906003523 94 360 0.0 3.0 0.00 0.00 0.00 41 1011.3
20260906002535 96 360 0.0 2.0 0.00 0.00 0.00 40 1011.3
20260906001519 97 360 0.0 1.0 0.00 0.00 0.00 39 1011.6
20260906000525 97 360 0.0 6.0 0.00 0.00 0.00 37 1011.4
20260905235530 98 360 0.0 5.0 0.00 0.00 0.00 36 1011.4
20260905234535 98 360 1.0 5.0 0.00 0.00 0.00 36 1011.4
20260905233548 99 360 0.0 4.0 0.00 0.00 0.00 35 1011.3
20260905232530 99 360 0.0 7.0 0.00 0.00 0.00 34 1011.2
20260905231535 99 360 0.0 1.0 0.00 0.00 0.00 34 1011.1
20260905230525 99 360 0.0 9.0 0.00 0.00 0.00 33 1011.1
20260905225529 100 360 3.0 8.0 0.00 0.00 0.00 34 1011.0
20260905224544 100 360 1.0 10.0 0.00 0.00 0.00 33 1011.0
20260905223527 100 360 5.0 11.0 0.00 0.00 0.00 32 1010.9
20260905222534 100 360 6.0 10.0 0.00 0.00 0.00 33 1010.9
20260905221550 100 360 0.0 9.0 0.00 0.00 0.00 32 1010.9
20260905220526 100 360 1.0 12.0 0.00 0.00 0.00 33 1011.0
20260905215528 101 360 0.0 12.0 0.00 0.00 0.00 34 1011.0
20260905214538 100 360 2.0 10.0 0.00 0.00 0.00 33 1011.1
20260905213522 101 157 6.0 12.0 0.00 0.00 0.00 33 1011.2
20260905212522 101 360 5.0 13.0 0.00 0.00 0.00 33 1011.3
20260905211529 101 360 2.0 14.0 0.00 0.00 0.00 34 1011.5
20260905210557 101 360 5.0 12.0 0.00 0.00 0.00 33 1011.7
20260905205526 101 360 5.0 11.0 0.00 0.00 0.00 34 1011.8
20260905204520 101 360 1.0 10.0 0.00 0.00 0.00 34 1012.1
20260905203529 101 360 3.0 10.0 0.00 0.00 0.00 32 1012.2
20260905202521 101 360 0.0 19.0 0.00 0.00 0.00 33 1012.2